Location: Bogis-Bossey
(46.3500°N, 6.1667°E)
Time: 17:40:03
(UTC+00:00)

Cosmos 44 - Pass Details

Date: 17 August 2022
Orbit: 594 x 766 km, 65.1° (Epoch: 01 October)

Event Time Altitude Azimuth Distance (km) Brightness Sun altitude
Rises 19:54:03 0° 328° (NNW) 2,845 7.8 -11.9°
Reaches altitude 10° 19:56:27 10° 338° (NNW) 1,946 6.5 -12.3°
Maximum altitude 20:00:28 35° 45° (NE) 992 4.0 -12.9°
Enters shadow 20:03:12 18° 101° (ESE) 1,522 4.5 -13.2°
